[[{"header":{"parameterUnit":"m.s-1","parameterCategory":1,"la1":30.2991,"la2":30.254,"lo1":-89.0895,"lo2":-89.0444,"dy":0.0017,"dx":0.0017,"nx":28,"ny":28,"refTime":"2024-05-13T03:00:00:Z","depth":0,"parameterNumber":2,"parameterNumberName":"U-component_of_WINDS"},"data":[0,0,0,0,0,0,0,0,0,0,0,0,0,0,0,0,0,0,0,0,0,0,0,0,0,0,0,0,0,0,0,0,0,0,0,0,0,0,0,0,0,0,0,0,0,0,0,0,0,0,0,0,0,0,0,0,0,0,-7.0365,-7.0364,0,-7.0334,-7.0333,-7.0333,-7.0119,-7.0114,-7.0109,-7.0104,-7.0075,-7.0079,-7.0084,0,0,0,0,0,0,0,0,0,0,0,0,0,-7.0242,-7.0245,-7.0365,-7.0364,-7.0364,-7.0334,-7.0333,-7.0333,-7.012,-7.0114,-7.0107,-7.0101,-7.0074,-7.0079,-7.0084,0,0,0,0,0,0,0,0,0,0,0,0,0,-7.0262,-7.0246,-7.0365,-7.0254,-7.0244,-7.0334,-7.0333,-7.0333,-7.0121,-7.0113,-7.0106,-7.0098,-7.0072,-7.0079,-7.0085,-7.028,0,0,-7.0104,-7.0106,0,0,0,0,0,0,0,0,-7.0261,-7.0266,-7.0271,-7.0262,-7.025,-7.0222,-7.0279,-7.0315,-7.0123,-7.0168,-7.0103,-7.0094,-7.0131,-7.0132,-7.0143,-7.0279,-7.0277,-7.0104,-7.0108,-7.0111,-7.0112,0,0,0,0,0,0,0,-7.026,-7.0267,-7.0352,-7.0271,-7.0259,-7.0206,-7.0201,-7.0285,-7.0194,-7.0163,-7.0148,-7.0147,-7.0124,-7.0138,-7.0141,-7.0277,-7.0104,-7.0109,-7.0113,-7.0116,-7.0569,-7.0577,0,0,0,0,0,0,-7.0273,-7.0267,-7.0353,-7.0351,-7.0236,-7.0215,-7.0208,-7.0239,-7.0192,-7.0178,-7.0154,-7.0137,-7.0131,-7.0134,-7.0139,-7.0363,-7.011,-7.0116,-7.012,-7.0561,-7.0571,-7.058,0,0,0,0,0,0,-7.0272,-7.0283,-7.0355,-7.0305,-7.031,-7.0226,-7.0262,-7.0243,-7.0256,-7.0185,-7.0168,-7.0185,-7.0125,-7.0131,-7.0246,-7.0359,-7.0119,-7.0125,-7.0551,-7.0564,-7.0576,-7.0814,0,0,0,0,0,0,-7.0269,-7.0284,-7.0357,-7.0308,-7.0314,-7.0462,-7.0269,-7.0248,-7.0267,-7.0245,-7.0209,-7.0196,-7.0119,-7.0238,-7.0252,-7.0363,-7.013,-7.0541,-7.0557,-7.0572,-7.0795,-7.0833,-7.0865,0,0,0,0,0,-7.0265,-7.0426,-7.0361,-7.0373,-7.0403,-7.0469,-7.0472,-7.0379,-7.0277,-7.035,-7.0304,-7.0197,-7.0345,-7.0251,-7.0266,-7.0381,-7.0533,-7.0552,-7.0571,-7.078,-7.0825,-7.0864,0,0,0,0,0,0,-7.0492,-7.0418,-7.0345,-7.0495,-7.049,-7.0433,-7.0521,-7.0431,-7.0456,-7.0434,-7.0319,-7.0313,-7.0446,-7.0425,-7.0322,-7.0566,-7.042,-7.0443,-7.0575,-7.0618,-7.0652,-7.0653,-7.0135,0,0,0,0,0,-7.0559,-7.0618,-7.055,-7.0689,-7.069,-7.0607,-7.0632,-7.0561,-7.0552,-7.0549,-7.0511,-7.0507,-7.0551,-7.0584,-7.0621,-7.0792,-7.078,-7.0878,-7.0913,-7.0942,-7.0962,-7.1049,-7.1091,-7.0642,-7.0642,-7.0641,0,0,-7.0699,-7.0665,-7.071,-7.0734,-7.0721,-7.0785,-7.0606,-7.0682,-7.0728,-7.056,-7.0666,-7.0639,-7.0626,-7.077,-7.0831,-7.0756,-7.1084,-7.0966,-7.0989,-7.0993,-7.1073,-7.1115,-7.1153,-7.0654,-7.0652,-7.065,0,0,-7.0985,-7.0967,-7.1079,-7.107,-7.1052,-7.0996,-7.1024,-7.098,-7.0955,-7.1059,-7.0934,-7.0988,-7.1068,-7.1064,-7.1072,-7.1357,-7.126,-7.1373,-7.1554,-7.1641,-7.1676,-7.1707,-7.1807,-7.1844,-7.1394,-7.1395,-7.1395,0,-7.1161,-7.1251,-7.1149,-7.1232,-7.1245,-7.1095,-7.1208,-7.1205,-7.1202,-7.1215,-7.1131,-7.1228,-7.1209,-7.1349,-7.1418,-7.1431,-7.1458,-7.1376,-7.1679,-7.1709,-7.1736,-7.183,-7.1868,-7.1408,-7.1407,-7.1405,-7.1404,0,-7.1467,-7.1532,-7.1625,-7.1624,-7.1648,-7.1747,-7.1659,-7.1697,-7.1624,-7.1577,-7.1685,-7.1657,-7.1685,-7.1714,-7.1645,-7.1844,-7.1798,-7.1699,-7.155,-7.1794,-7.1881,-7.1916,-7.1428,-7.1423,-7.1419,-7.1416,0,0,-7.1895,-7.1835,-7.1871,-7.1867,-7.1837,-7.1885,-7.1977,-7.2003,-7.2037,-7.2041,-7.2114,-7.2186,-7.2093,-7.2103,-7.2032,-7.2108,-7.2334,-7.1999,-7.1997,-7.2061,-7.255,-7.2624,-7.2667,-7.2269,-7.2276,-7.2281,-7.255,0,-7.2168,-7.2319,-7.2229,-7.2393,-7.2451,-7.2309,-7.2389,-7.238,-7.2338,-7.2382,-7.2336,-7.2388,-7.2263,-7.2268,-7.2337,-7.2292,-7.243,-7.2271,-7.2336,-7.234,-7.2342,-7.2712,-7.279,-7.3046,-7.2584,-7.2589,-7.2594,0,-7.2507,-7.2523,-7.2693,-7.2649,-7.267,-7.2743,-7.2759,-7.2803,-7.279,-7.2754,-7.2766,-7.2676,-7.2762,-7.2617,-7.2735,-7.2629,-7.2651,-7.2633,-7.2641,-7.2642,-7.248,-7.2722,-7.3125,-7.3163,-7.2646,-7.2642,-7.2638,0,-7.2799,-7.2864,-7.2972,-7.2975,-7.2928,-7.2982,-7.2965,-7.2944,-7.2965,-7.2981,-7.2993,-7.302,-7.3034,-7.3057,-7.2976,-7.2878,-7.3105,-7.2953,-7.3078,-7.308,-7.3131,-7.3128,-7.3542,-7.3149,-7.3148,-7.3147,-7.3147,0,-7.3113,-7.3222,-7.3103,-7.317,-7.3288,-7.3184,-7.3304,-7.3272,-7.3255,-7.3314,-7.3194,-7.3252,-7.3143,-7.3191,-7.3129,-7.3236,-7.3244,-7.3218,-7.3199,-7.3227,-7.3231,-7.3238,-7.3218,-7.3157,-7.3155,-7.3153,-7.3151,0,-7.3459,-7.3384,-7.3493,-7.3439,-7.3428,-7.3517,-7.3471,-7.3532,-7.3482,-7.3558,-7.357,-7.3493,-7.3543,-7.3465,-7.3507,-7.3465,-7.3612,-7.3568,-7.3616,-7.3602,-7.3731,-7.3719,-7.4162,-7.4214,-7.379,-7.3795,-7.3798,0,-7.3663,-7.3743,-7.3697,-7.3727,-7.3717,-7.3767,-7.3788,-7.3689,-7.3716,-7.3706,-7.3768,-7.3807,-7.3833,-7.3919,-7.3867,-7.3898,-7.3853,-7.4006,-7.3857,-7.3882,-7.3853,-7.3849,-7.3855,-7.4036,-7.4041,-7.4045,-7.4049,0,-7.4033,-7.3991,-7.4024,-7.4045,-7.4073,-7.4085,-7.4088,-7.412,-7.4016,-7.4052,-7.41,-7.412,-7.4162,-7.4202,-7.422,-7.4203,-7.411,-7.4096,-7.4126,-7.4155,-7.4179,-7.4166,-7.3698,-7.4086,-7.4083,-7.408,-7.4078,-7.4076,-7.4312,-7.4376,-7.4353,-7.4394,-7.4386,-7.4392,-7.4445,-7.4402,-7.4439,-7.4464,-7.4404,-7.4467,-7.4451,-7.4465,-7.4459,-7.4507,-7.444,-7.4484,-7.4495,-7.4507,-7.4526,-7.4173,-7.451,-7.4509,-7.4508,-7.4507,-7.4506,0,-7.4674,-7.4652,-7.4691,-7.4698,-7.4731,-7.4638,-7.4637,-7.4671,-7.4726,-7.4719,-7.4746,-7.4802,-7.484,-7.4792,-7.4822,-7.487,-7.4827,-7.4881,-7.4875,-7.4873,-7.4585,-7.4555,-7.4914,-7.4914,-7.4914,-7.4914,-7.4914,-7.4914,-7.4866,-7.4969,-7.4925,-7.5022,-7.4999,-7.5058,-7.5065,-7.507,-7.5063,-7.5129,-7.516,-7.5127,-7.5103,-7.513,-7.5162,-7.5147,-7.5163,-7.5231,-7.5201,-7.4933,-7.4893,-7.4855,-7.4826,-7.5236,-7.5237,-7.5484,-7.5486,-7.5488]},{"header":{"parameterUnit":"m.s-1","parameterCategory":1,"la1":30.2991,"la2":30.254,"lo1":-89.0895,"lo2":-89.0444,"dy":0.0017,"dx":0.0017,"nx":28,"ny":28,"refTime":"2024-05-13T03:00:00:Z","depth":0,"parameterNumber":3,"parameterNumberName":"V-component_of_WINDS"},"data":[0,0,0,0,0,0,0,0,0,0,0,0,0,0,0,0,0,0,0,0,0,0,0,0,0,0,0,0,0,0,0,0,0,0,0,0,0,0,0,0,0,0,0,0,0,0,0,0,0,0,0,0,0,0,0,0,0,0,5.0708,5.0707,0,5.0617,5.0616,5.0615,5.0525,5.0524,5.0523,5.0522,5.0419,5.0418,5.0416,0,0,0,0,0,0,0,0,0,0,0,0,0,5.0798,5.0797,5.0708,5.0707,5.0706,5.0617,5.0616,5.0614,5.0526,5.0524,5.0523,5.0521,5.042,5.0418,5.0416,0,0,0,0,0,0,0,0,0,0,0,0,0,5.0738,5.0796,5.0708,5.0651,5.0645,5.0617,5.0616,5.0614,5.0526,5.0524,5.0522,5.0521,5.0421,5.0418,5.0416,5.0435,0,0,5.0408,5.0407,0,0,0,0,0,0,0,0,5.0741,5.0735,5.066,5.0655,5.0648,5.0581,5.061,5.0554,5.0526,5.0571,5.0522,5.052,5.0474,5.0467,5.0453,5.043,5.0425,5.0408,5.0406,5.0405,5.0405,0,0,0,0,0,0,0,5.0746,5.0738,5.0671,5.0659,5.0652,5.0627,5.0617,5.0599,5.0533,5.0567,5.056,5.0551,5.047,5.0456,5.045,5.0424,5.0408,5.0406,5.0404,5.0403,5.0411,5.0413,0,0,0,0,0,0,5.076,5.0742,5.0674,5.0669,5.0692,5.0627,5.0616,5.0604,5.0533,5.052,5.0553,5.0547,5.0461,5.0453,5.0446,5.0463,5.0405,5.0403,5.0402,5.041,5.0412,5.0414,0,0,0,0,0,0,5.0762,5.0754,5.0678,5.0704,5.0692,5.0628,5.0615,5.0603,5.0589,5.0522,5.0509,5.0551,5.0459,5.045,5.0439,5.0458,5.0402,5.04,5.0408,5.041,5.0413,5.0498,0,0,0,0,0,0,5.0765,5.0756,5.0764,5.0705,5.0691,5.0675,5.0616,5.0603,5.0586,5.0578,5.0517,5.0505,5.0457,5.0443,5.0437,5.0454,5.0398,5.0406,5.0409,5.0412,5.0493,5.0503,5.0512,0,0,0,0,0,5.0768,5.0789,5.0765,5.0757,5.07,5.0676,5.0668,5.0615,5.0588,5.0594,5.0552,5.0507,5.0459,5.0443,5.0434,5.0451,5.0404,5.0408,5.0412,5.0489,5.0501,5.0511,0,0,0,0,0,0,5.0848,5.078,5.0752,5.0755,5.0723,5.0661,5.0667,5.063,5.0602,5.0595,5.0528,5.0515,5.0512,5.0481,5.0465,5.0466,5.0425,5.0427,5.0486,5.0497,5.0507,5.0513,5.0396,0,0,0,0,0,5.0867,5.0856,5.0796,5.0804,5.079,5.0732,5.0719,5.0682,5.0644,5.0629,5.0585,5.0548,5.0524,5.0509,5.0484,5.0489,5.0474,5.0497,5.0506,5.0514,5.0516,5.0516,5.0525,5.0426,5.0426,5.0426,0,0,5.0904,5.0866,5.0861,5.0819,5.0789,5.0777,5.072,5.0709,5.0698,5.0626,5.0613,5.0581,5.0535,5.0533,5.0529,5.0506,5.0541,5.0519,5.0526,5.0523,5.0521,5.053,5.0539,5.0429,5.0428,5.0428,0,0,5.0964,5.0936,5.0939,5.0912,5.0869,5.0831,5.0832,5.0777,5.0754,5.0741,5.0687,5.0672,5.0633,5.0603,5.0582,5.0635,5.0592,5.0629,5.0676,5.0677,5.0684,5.0691,5.0708,5.0715,5.0631,5.0631,5.0632,0,5.1015,5.0996,5.0945,5.0938,5.092,5.0859,5.0861,5.0836,5.0786,5.0774,5.0751,5.0701,5.0666,5.0655,5.0669,5.0655,5.0652,5.0633,5.0688,5.0694,5.0699,5.0715,5.0722,5.0636,5.0635,5.0635,5.0635,0,5.1059,5.1047,5.1055,5.1012,5.0996,5.0993,5.094,5.0929,5.0895,5.0859,5.0847,5.0803,5.0768,5.0763,5.0727,5.0748,5.0735,5.0701,5.0657,5.0714,5.0728,5.0733,5.0643,5.0641,5.064,5.0638,0,0,5.1163,5.1096,5.1099,5.1079,5.1029,5.1017,5.1012,5.0982,5.0973,5.0942,5.0934,5.0904,5.0873,5.085,5.0811,5.0812,5.0856,5.0778,5.0775,5.0792,5.0873,5.0897,5.0905,5.0829,5.083,5.0831,5.0877,0,5.1213,5.1203,5.1158,5.1159,5.1147,5.1091,5.1086,5.1054,5.1021,5.1004,5.0966,5.0946,5.0908,5.0893,5.0892,5.0851,5.0871,5.0847,5.0818,5.0817,5.0828,5.0912,5.0937,5.0982,5.0882,5.0883,5.0883,0,5.1269,5.1245,5.1247,5.1199,5.1192,5.1189,5.1157,5.1143,5.1105,5.1081,5.1058,5.1016,5.1005,5.0968,5.0951,5.0936,5.0922,5.09,5.09,5.0892,5.0851,5.0904,5.0996,5.1002,5.0891,5.0891,5.089,0,5.1343,5.1311,5.1308,5.1293,5.1237,5.1236,5.1212,5.1173,5.1158,5.113,5.1119,5.109,5.1073,5.105,5.1,5.0978,5.0989,5.0947,5.0966,5.0967,5.0967,5.0967,5.1055,5.0964,5.0963,5.0963,5.0963,0,5.1402,5.1404,5.134,5.1338,5.1339,5.1288,5.1289,5.126,5.1226,5.1216,5.1165,5.1155,5.1092,5.1075,5.1036,5.1027,5.102,5.0999,5.0987,5.1001,5.1004,5.0988,5.0983,5.0965,5.0965,5.0964,5.0964,0,5.1482,5.144,5.1432,5.1382,5.137,5.1373,5.1328,5.1323,5.1289,5.1276,5.127,5.1215,5.1193,5.1143,5.1105,5.1079,5.1079,5.1061,5.1093,5.1085,5.1106,5.1104,5.1184,5.1191,5.1099,5.11,5.11,0,5.1521,5.1522,5.1473,5.1464,5.1444,5.1429,5.1415,5.1365,5.1351,5.131,5.1309,5.1284,5.126,5.1227,5.1182,5.1153,5.1132,5.1163,5.1127,5.1142,5.113,5.1129,5.1128,5.1169,5.1171,5.1172,5.1172,0,5.1594,5.1574,5.1556,5.1532,5.1517,5.1494,5.1469,5.1464,5.1407,5.1394,5.1373,5.1355,5.132,5.1294,5.1259,5.1232,5.1192,5.1185,5.1187,5.1199,5.1217,5.1206,5.1111,5.1182,5.1181,5.118,5.118,5.1179,5.1652,5.1651,5.1617,5.1599,5.1576,5.1554,5.1547,5.1514,5.1496,5.1465,5.1437,5.1418,5.1381,5.1331,5.1307,5.1289,5.1269,5.1273,5.1273,5.1274,5.128,5.1224,5.1283,5.1283,5.1282,5.1282,5.1282,0,5.172,5.1697,5.1682,5.1649,5.1636,5.1605,5.1576,5.1565,5.155,5.152,5.15,5.1475,5.1451,5.1406,5.1377,5.1372,5.1353,5.1366,5.1364,5.1358,5.13,5.13,5.1382,5.1382,5.1382,5.1382,5.1382,5.1382,5.1754,5.175,5.1726,5.171,5.1686,5.1669,5.1655,5.1634,5.161,5.1586,5.1567,5.154,5.1504,5.1473,5.1449,5.1436,5.1426,5.1445,5.1426,5.1372,5.1362,5.1353,5.1352,5.1444,5.1444,5.1484,5.1485,5.1485]}]]